SM5FGQ-2 Weather Reports


Display with metric or nautical units.
time (UTC)temp
F
wind
direction
speed
MPH
gust
MPH
rain 1hr
in
rain 24hr
in
rain mn
in
humidity
%
barometer
mb
20260831020054 59 230 2.0 9.0 0.00 0.36 0.01 98 1000.3
20260831013044 60 243 3.0 8.0 0.00 0.36 0.01 99 1000.2
20260831010034 60 242 4.0 9.0 0.00 0.36 0.01 99 999.9
20260831003024 61 255 4.0 16.0 0.00 0.36 0.01 99 999.5
20260831000156 62 264 3.0 9.0 0.00 0.37 0.01 99 999.1
20260830233104 62 224 1.0 6.0 0.01 0.37 0.01 99 998.8
20260830230056 61 195 0.0 1.0 0.01 0.37 0.01 99 998.6
20260830223044 61 153 0.0 2.0 0.00 0.36 0.00 99 998.5
20260830220034 61 90 0.0 1.0 0.00 0.36 0.00 99 998.4
20260830213024 61 90 0.0 1.0 0.00 0.36 0.36 99 998.3
20260830210114 61 90 0.0 0.0 0.00 0.36 0.36 99 998.2
20260830203104 61 90 0.0 1.0 0.00 0.36 0.36 99 998.1
20260830200054 61 82 0.0 1.0 0.00 0.36 0.36 98 998.1
20260830193105 61 90 0.0 1.0 0.00 0.36 0.36 97 998.1
20260830190036 62 103 0.0 1.0 0.00 0.36 0.36 96 998.1
20260830183025 62 45 0.0 1.0 0.01 0.36 0.36 94 998.2
20260830180116 63 45 0.0 1.0 0.18 0.36 0.36 90 998.2
20260830173106 65 178 0.0 3.0 0.17 0.35 0.35 89 998.4
20260830170058 65 304 0.0 1.0 0.02 0.18 0.17 88 998.4
20260830163049 66 220 0.0 2.0 0.02 0.18 0.17 86 998.5
20260830160037 66 135 0.0 2.0 0.00 0.16 0.15 84 998.8
20260830153028 67 210 0.0 3.0 0.00 0.16 0.15 83 999.0
20260830150018 66 118 1.0 4.0 0.00 0.16 0.15 83 999.3
20260830143107 66 209 0.0 3.0 0.00 0.16 0.15 82 999.5
20260830140057 66 105 1.0 5.0 0.00 0.16 0.15 81 999.7
20260830133047 66 145 1.0 3.0 0.00 0.16 0.15 80 1000.0
20260830130038 66 158 2.0 6.0 0.00 0.16 0.15 83 1000.1
20260830123026 65 131 1.0 3.0 0.00 0.16 0.15 84 1000.4
20260830120016 65 288 0.0 2.0 0.00 0.16 0.15 83 1000.6
20260830113108 65 182 1.0 3.0 0.00 0.16 0.15 86 1000.9
20260830110057 64 191 1.0 5.0 0.01 0.16 0.15 87 1001.1
20260830103047 63 31 0.0 2.0 0.12 0.16 0.15 88 1000.9
20260830100057 63 156 1.0 4.0 0.12 0.15 0.14 83 1001.3
20260830093027 65 174 1.0 5.0 0.01 0.03 0.02 79 1001.4
20260830090017 65 178 2.0 6.0 0.00 0.02 0.01 76 1001.4
20260830083149 66 199 2.0 6.0 0.00 0.02 0.01 76 1001.3
20260830080058 65 182 2.0 5.0 0.00 0.02 0.01 79 1001.1
20260830073050 64 155 2.0 5.0 0.00 0.02 0.01 84 1001.2
20260830070038 63 147 1.0 4.0 0.00 0.02 0.01 96 1001.2
20260830063028 60 144 2.0 4.0 0.00 0.02 0.01 99 1001.2
20260830060017 58 116 1.0 3.0 0.00 0.02 0.01 99 1001.2
20260830053108 57 125 1.0 3.0 0.00 0.02 0.01 99 1001.2
20260830050058 56 106 1.0 2.0 0.00 0.02 0.01 99 1001.1
20260830043048 56 135 1.0 3.0 0.00 0.02 0.01 99 1001.1
20260830040039 56 129 0.0 2.0 0.00 0.02 0.01 99 1001.1
20260830033027 57 104 0.0 2.0 0.00 0.02 0.01 99 1001.0
20260830030017 57 107 0.0 3.0 0.00 0.02 0.01 99 1000.8
20260830023110 58 114 0.0 3.0 0.00 0.02 0.01 99 1000.8